Regional Weather Roundup
Issued by NWS

Home | Current Version | Previous Version | Text Only | Print | Product List | Glossary On
Versions: 1 2 3 4 5 6 7 8 9 10 11 12 13 14 15 16 17 18 19 20 21 22 23 24 25 26 27 28 29 30 31 32 33 34 35 36 37 38 39 40 41 42 43 44 45 46 47 48 49 50
000
ASUS44 KOUN 241410
RWROK

WEATHER ROUNDUP FOR OKLAHOMA
NATIONAL WEATHER SERVICE NORMAN OK
900 AM CDT SUN JUL 24 2016

NOTE: "FAIR" INDICATES FEW OR NO CLOUDS BELOW 12,000 FEET WITH NO
      SIGNIFICANT WEATHER AND/OR OBSTRUCTIONS TO VISIBILITY.

OKZ001>007-009>012-014-015-017-241500-
NORTHWEST OKLAHOMA AND THE PANHANDLE

CITY           SKY/WX    TMP DP  RH WIND       PRES   REMARKS
GAGE           MOSUNNY   85  63  47 S14       29.98R
GUYMON         CLOUDY    85  58  39 VRB5      30.01R
$$

OKZ016-021>023-033>039-044-045-241500-
SOUTHWEST OKLAHOMA

CITY           SKY/WX    TMP DP  RH WIND       PRES   REMARKS
LAWTON/REGL    SUNNY     83  70  64 SE3       29.98R
LAWTON/FT SILL SUNNY     83  71  67 S6        29.97R
FREDERICK      SUNNY     84  69  60 SE8       29.95R
CLINTON        SUNNY     85  65  51 S15       30.01R
HOBART         MOSUNNY   85  68  56 S15       29.99R
ALTUS AFB      SUNNY     80  67  64 SE7       29.98R
$$

OKZ018>020-024>031-241500-
CENTRAL OKLAHOMA

CITY           SKY/WX    TMP DP  RH WIND       PRES   REMARKS
OKLAHOMA CITY  MOSUNNY   83  70  64 SW10      29.98R
OKC/WILEY POST SUNNY     85  70  60 SW15      29.97R
OKC/TINKER AFB SUNNY     82  72  69 S10       29.99R
STILLWATER     CLOUDY    83  72  69 S6        29.96R
GUTHRIE        SUNNY     87  69  54 SW9       29.97R HX  91
$$

OKZ008-013-054>072-241500-
NORTHEAST OKLAHOMA

CITY           SKY/WX    TMP DP  RH WIND       PRES   REMARKS
TULSA          PTSUNNY   84  72  67 SW7       29.95S
TULSA/JONES    SUNNY     83  73  72 S7        29.96R
PONCA CITY     CLOUDY    85  71  63 MISG      29.95R HX  90
BARTLESVILLE   SUNNY     86  74  67 S5        29.97R HX  94
MUSKOGEE       SUNNY     84  73  69 S6        29.99R HX  90
$$

OKZ032-040>043-046>053-073>077-241500-
SOUTH CENTRAL/SOUTHEAST OKLAHOMA

CITY           SKY/WX    TMP DP  RH WIND       PRES   REMARKS
ARDMORE/DWNTWN SUNNY     82  70  65 SW5       29.97S
MCALESTER      SUNNY     83  72  69 S5        29.99R
$$





USA.gov is the U.S. government's official web portal to all federal, state and local government web resources and services.